Hourly Data Report for October 19, 2015

All times are specified in Local Standard Time (LST). Add 1 hour to adjust for Daylight Saving Time where and when it is observed.

RANKIN INLET A
NUNAVUT

62°48'38.000" N
92°06'53.000" W
32.30 m
2303405
71083
YRT

Download Data

Hourly Data (October 2015)
Hourly Data Report for October 19, 2015
Temp Definition
°C
Dew Point Temp Definition
°C
Rel Hum Definition
%
Wind Dir Definition
10's deg

Wind Spd Definition
km/h
Visibility Definition
km
Stn Press Definition
kPa
Hmdx Definition


Wind Chill Definition


Weather Definition


TIME
00:00 Legend Double Dagger -4.2 -5.3 92 34 51 2.4 98.72   -14 Snow,Blowing Snow
01:00 Legend Double Dagger -4.3 -5.4 92 34 50 2.4 98.74   -14 Snow,Blowing Snow
02:00 Legend Double Dagger -3.9 -4.9 93 34 41 2.4 98.75   -13 Snow,Blowing Snow
03:00 Legend Double Dagger -1.5 -2.2 95 2 30 2.4 98.76   -8 Snow,Blowing Snow
04:00 Legend Double Dagger -1.5 -2.6 92 2 33 2.4 98.84   -9 Snow,Blowing Snow
05:00 Legend Double Dagger -2.0 -3.3 91 3 48 2.4 98.89   -11 Snow,Blowing Snow
06:00 Legend Double Dagger -2.3 -3.7 90 2 49 2.4 99.02   -11 Snow,Blowing Snow
07:00 Legend Double Dagger -2.6 -4.2 89 2 50 2.4 99.18   -12 Snow,Blowing Snow
08:00 Legend Double Dagger -3.0 -4.6 89 2 55 1.6 99.33   -13 Snow,Blowing Snow
09:00 Legend Double Dagger -3.3 -5.0 88 2 60 1.2 99.53   -13 Snow,Blowing Snow
10:00 Legend Double Dagger -3.7 -5.6 87 1 59 1.6 99.76   -14 Snow,Blowing Snow
11:00 Legend Double Dagger -3.6 -5.8 85 2 52 9.7 99.92   -13 Snow,Blowing Snow
12:00 Legend Double Dagger -4.3 -6.8 83 36 52 9.7 100.09   -14 Blowing Snow
13:00 Legend Double Dagger -5.4 -7.9 83 36 53 16.1 100.24   -16 Blowing Snow
14:00 Legend Double Dagger -6.0 -8.6 82 36 53 16.1 100.40   -17 Blowing Snow
15:00 Legend Double Dagger -6.7 -9.4 81 36 49 16.1 100.51   -17 Blowing Snow
16:00 Legend Double Dagger -8.1 -10.7 82 34 44 24.1 100.68   -19 Blowing Snow
17:00 Legend Double Dagger -9.6 -12.1 82 34 44 16.1 100.82   -21 Blowing Snow
18:00 Legend Double Dagger -10.2 -13.0 80 34 49 24.1 100.88   -22 Blowing Snow
19:00 Legend Double Dagger -10.8 -13.9 78 34 47 24.1 100.97   -23 Blowing Snow
20:00 Legend Double Dagger -10.5 -13.6 78 35 48 24.1 101.06   -22 Blowing Snow
21:00 Legend Double Dagger -10.9 -14.0 78 34 38 24.1 101.13   -22 Blowing Snow
22:00 Legend Double Dagger -11.2 -14.3 78 35 40 24.1 101.19   -22 Blowing Snow
23:00 Legend Double Dagger -11.5 -14.6 78 34 38 24.1 101.25   -23 Blowing Snow

Notes on Data Quality.

Legend

  • E = Estimated
  • M = Missing
  • NA = Not Available
  • ‡ = Partner data that is not subject to review by the National Climate Archives
Date modified: